Location: Bishop�s Knoyle
(51.0728°N, 2.1714°W)
Time: 09:42:38
(UTC+00:00)

CENTAUR R/B - Visible Passes

Search period start: 17 January 2021 00:00
Search period end: 27 January 2021 00:00
Orbit: 750 x 1438 km, 63.4° (Epoch: 11 January)

Date Brightness Start Highest point End Pass type
(mag) Time Alt. Az. Time Alt. Az. Time Alt. Az.
17 Jan 4.8 17:07:39 10° NW 17:15:04 40° WSW 17:23:04 10° S visible
18 Jan 4.9 07:04:12 10° S 07:09:11 28° ESE 07:14:52 10° ENE visible
18 Jan 6.2 18:11:50 10° WNW 18:16:25 16° WSW 18:21:10 10° SW visible
19 Jan 5.4 06:17:47 10° SE 06:21:31 17° ESE 06:25:36 10° ENE visible
19 Jan 5.8 17:22:20 10° WNW 17:28:40 25° WSW 17:35:22 10° SSW visible
20 Jan 3.7 07:16:58 10° SSW 07:22:41 50° ESE 07:29:28 10° NE visible
21 Jan 4.5 06:29:38 10° S 06:34:48 32° ESE 06:40:46 10° NE visible
21 Jan 6.2 17:38:05 10° WNW 17:42:01 14° WSW 17:46:04 10° SW visible
22 Jan 5.2 05:42:59 10° SSE 05:47:06 19° ESE 05:51:39 10° ENE visible
23 Jan 5.6 04:58:11 10° ESE 04:59:34 11° E 05:01:00 10° E visible
23 Jan 3.4 06:42:34 10° SSW 06:48:22 55° ESE 06:55:17 10° NE visible
24 Jan 4.2 05:55:07 10° S 06:00:26 35° ESE 06:06:38 10° NE visible
25 Jan 4.8 05:08:16 10° SSE 05:12:41 22° ESE 05:17:39 10° ENE visible
25 Jan 2.7 06:56:10 10° SW 07:02:15 88° SE 07:09:35 10° NE visible
26 Jan 5.2 04:22:40 10° SE 04:25:07 13° ESE 04:27:43 10° ENE visible
26 Jan 3.1 06:08:12 10° SSW 06:14:04 61° SE 06:21:06 10° NE visible
